Home > Weather > Belfast > Past weeks

Flag for United Kingdom Weather for the Past 2 Weeks in Belfast, Northern Ireland, United Kingdom

Now
57 °F

Passing clouds.


Feels Like: 54 °F
Forecast: 43 / 54 °F
Wind: 14 mph from South

Location: Belfast / Harbour

Current Time: May 2, 2016 at 1:20:57 AM

Latest Report: May 1, 2016 at 9:50 PM


Visibility: N/A

Pressure: 29.95 "Hg

Humidity: 82%

Dew Point: 52 °F

Location of BelfastLocation

Historic Weather in Belfast — Graph

°F

Belfast Temperature Yesterday

Maximum temperature yesterday: 59 °F (at 1:20 PM)
Minimum temperature yesterday: 46 °F (at 6:20 AM)
Average temperature yesterday: 55 °F

High & Low Weather Summary for the Past Weeks

 TemperatureHumidityPressure
High59 °F (Apr 21, 3:50 PM)94% (May 1, 4:20 PM)30.45 "Hg (May 1, 4:20 PM)
Low34 °F (Apr 20, 6:20 AM)37% (Apr 27, 3:50 PM)29.65 "Hg (Apr 28, 11:50 AM)
Average48 °F65%30.09 "Hg
* Reported Apr 17 6:20 AM — May 1 9:50 PM, Belfast, Weather by CustomWeather, © 2016

Note: Actual official high and low records may vary slightly from our data, if they occured in-between our weather recording intervals... More about our weather records

Advertising

Belfast Weather History for the Previous 24 Hours

Scroll right to see more
 ConditionsComfort  
Time TempWeatherWind HumidityBarometerVisibility
9:50 PM
Sun, May 1
57 °FPassing clouds.14 mph82%29.95 "HgN/A
9:20 PM57 °FPassing clouds.14 mph82%29.95 "HgN/A
8:50 PM59 °FScattered clouds.17 mph77%29.98 "HgN/A
8:20 PM59 °FScattered clouds.18 mph82%29.98 "HgN/A
7:50 PM59 °FBroken clouds.16 mph82%29.98 "HgN/A
7:20 PM59 °FBroken clouds.15 mph82%29.98 "HgN/A
6:50 PM59 °FBroken clouds.16 mph82%29.98 "HgN/A
6:20 PM57 °FBroken clouds.18 mph88%29.98 "HgN/A
5:50 PM57 °FBroken clouds.17 mph88%30.01 "HgN/A
5:20 PM57 °FBroken clouds.17 mph82%30.01 "HgN/A
4:50 PM57 °FLight rain. Broken clouds.14 mph82%30.01 "HgN/A
4:20 PM55 °FDrizzle. Broken clouds.16 mph94%30.04 "HgN/A
3:50 PM55 °FPassing clouds.12 mph88%30.04 "HgN/A
3:20 PM57 °FLight rain. Passing clouds.12 mph82%30.04 "HgN/A
2:50 PM57 °FSprinkles. Passing clouds.10 mph77%30.04 "HgN/A
2:20 PM59 °FPassing clouds.14 mph63%30.04 "HgN/A
1:50 PM59 °FScattered clouds.14 mph68%30.04 "HgN/A
1:20 PM59 °FScattered clouds.14 mph68%30.04 "HgN/A
12:50 PM57 °FScattered clouds.15 mph72%30.04 "HgN/A
12:20 PM57 °FScattered clouds.14 mph77%30.04 "HgN/A
11:50 AM55 °FScattered clouds.13 mph77%30.04 "HgN/A
11:20 AM55 °FBroken clouds.14 mph77%30.04 "HgN/A
10:50 AM54 °FSprinkles. Broken clouds.13 mph88%30.04 "HgN/A
10:20 AM54 °FBroken clouds.13 mph88%30.04 "HgN/A
9:50 AM52 °FScattered showers. Broken clouds.14 mph88%30.04 "HgN/A
9:20 AM50 °FScattered showers. Broken clouds.13 mph88%30.04 "HgN/A
8:50 AM50 °FScattered showers. Broken clouds.16 mph88%30.04 "HgN/A
7:50 AM48 °FScattered showers. Broken clouds.14 mph87%30.04 "HgN/A
7:20 AM48 °FLight rain. Broken clouds.14 mph87%30.04 "HgN/A
6:50 AM46 °FLight rain. Broken clouds.8 mph93%30.04 "Hg4 mi
6:20 AM46 °FLight rain. Partly cloudy.12 mph87%30.04 "Hg4 mi
Weather by CustomWeather, © 2016

See weather overviewHow to use our weather pages